Weather History for Billings, MT

Change the Weather History Date:

Thursday, January 10, 2013

  Actual Average Record
Temperature  
Mean Temperature 33 °F 27 °F  
Max Temperature 48 °F 36 °F 59 °F (1941)
Min Temperature 18 °F 17 °F -22 °F (1949)
Degree Days  
Heating Degree Days 32 38  
Month to date heating degree days 328 387  
Since 1 July heating degree days 2869 3208  
Cooling Degree Days 0 0  
Month to date cooling degree days 0 0  
Year to date cooling degree days 0 0  
Moisture  
Dew Point 20 °F    
Average Humidity 57    
Maximum Humidity 77    
Minimum Humidity 37    
Precipitation  
Precipitation T in 0.02 in 0.16 in (2007)
Month to date precipitation 0.01 0.16  
Year to date precipitation 0.01 0.16  
Snow  
Snow T in 0.30 in 3.20 in (2007)
Month to date snowfall 0.1 2.8  
Since 1 July snowfall 16.4 22.7  
Snow Depth 0.00 in    
Sea Level Pressure  
Sea Level Pressure 29.60 in    
Wind  
Wind Speed 14 mph (NNE)    
Max Wind Speed 25 mph    
Max Gust Speed 31 mph    
Visibility 10 miles    
Events Snow    
T = Trace of Precipitation, MM = Missing Value Source: NWS Daily Summary

Daily Weather History Graph

Daily Weather History Graph

Search for Another Location

Airport:

Trip Planner

Search our weather history database for the weather conditions in past years. The results will help you decide how hot, cold, wet, or windy it might be!

Date:

Astronomy

Jan. 10, 2013 Rise Set
Actual Time 7:53 AM MST 4:50 PM MST
Civil Twilight 7:20 AM MST 5:24 PM MST
Nautical Twilight 6:42 AM MST 6:01 PM MST
Astronomical Twilight 6:06 AM MST 6:37 PM MST
Moon 6:36 AM MST (1/10) 4:02 PM MST (1/10)
Length of Visible Light 10h 04m
Length of Day
8h 56m
Waning Crescent, 2% of the Moon is Illuminated
Jan 10
Waning Crescent
Jan 11
New
Jan 18
First Quarter
Jan 26
Full
Feb 3
Last Quarter

Hourly Weather History & Observations

Time (MST) Temp. Windchill Dew Point Humidity Pressure Visibility Wind Dir Wind Speed Gust Speed Precip Events Conditions
12:53 AM 37.9 °F 30.0 °F 23.0 °F 55% 29.66 in 10.0 mi WSW 12.7 mph - N/A   Clear
1:53 AM 37.0 °F 31.0 °F 23.0 °F 57% 29.65 in 10.0 mi SW 8.1 mph - N/A   Clear
2:53 AM 35.1 °F 27.4 °F 23.0 °F 61% 29.63 in 10.0 mi WSW 10.4 mph - N/A   Clear
3:53 AM 37.0 °F 29.8 °F 21.0 °F 52% 29.60 in 10.0 mi SW 10.4 mph - N/A   Clear
4:53 AM 36.0 °F 28.0 °F 21.0 °F 55% 29.57 in 10.0 mi SW 11.5 mph - N/A   Clear
5:53 AM 37.9 °F 27.6 °F 21.0 °F 51% 29.54 in 10.0 mi WSW 20.7 mph - N/A   Partly Cloudy
6:53 AM 37.0 °F 26.4 °F 21.0 °F 52% 29.52 in 10.0 mi WSW 20.7 mph - N/A   Partly Cloudy
7:53 AM 37.9 °F 28.2 °F 19.9 °F 48% 29.54 in 10.0 mi WSW 18.4 mph - N/A   Mostly Cloudy
8:53 AM 41.0 °F 31.6 °F 19.9 °F 43% 29.54 in 10.0 mi West 20.7 mph - N/A   Scattered Clouds
9:53 AM 42.1 °F 38.4 °F 19.9 °F 41% 29.57 in 10.0 mi Variable 5.8 mph - N/A   Mostly Cloudy
10:53 AM 46.0 °F 41.0 °F 21.0 °F 37% 29.54 in 10.0 mi West 10.4 mph - N/A   Scattered Clouds
11:53 AM 46.9 °F - 23.0 °F 39% 29.52 in 10.0 mi Variable 6.9 mph - N/A   Scattered Clouds
12:53 PM 45.0 °F 38.2 °F 24.1 °F 44% 29.50 in 10.0 mi ENE 15.0 mph - N/A   Scattered Clouds
1:53 PM 41.0 °F 32.2 °F 28.0 °F 60% 29.54 in 10.0 mi ENE 18.4 mph - N/A   Scattered Clouds
2:49 PM 35.6 °F 24.5 °F 26.6 °F 70% 29.52 in 10.0 mi NE 20.7 mph - N/A   Overcast
2:53 PM 35.1 °F 23.3 °F 26.1 °F 70% 29.58 in 10.0 mi NE 23.0 mph - N/A   Mostly Cloudy
3:53 PM 30.9 °F 18.1 °F 23.0 °F 72% 29.61 in 10.0 mi NE 21.9 mph - N/A   Mostly Cloudy
4:53 PM 28.0 °F 14.6 °F 19.0 °F 69% 29.64 in 10.0 mi NE 20.7 mph 25.3 mph N/A   Mostly Cloudy
5:20 PM 27.0 °F 13.5 °F 19.0 °F 72% 29.57 in 10.0 mi NE 19.6 mph - N/A   Overcast
5:50 PM 26.6 °F 14.7 °F 19.4 °F 74% 29.57 in 10.0 mi ENE 15.0 mph - N/A   Overcast
5:53 PM 26.1 °F 14.5 °F 19.0 °F 75% 29.65 in 10.0 mi ENE 13.8 mph - N/A   Overcast
6:53 PM 25.0 °F 14.8 °F 18.0 °F 75% 29.67 in 10.0 mi NE 10.4 mph - N/A   Overcast
7:10 PM 24.1 °F 13.7 °F 18.0 °F 77% 29.60 in 10.0 mi NE 10.4 mph - N/A   Overcast
7:53 PM 23.0 °F 9.6 °F 16.0 °F 74% 29.68 in 9.0 mi NNE 16.1 mph - 0.00 in Snow Light Snow
8:00 PM 23.0 °F 10.1 °F 16.0 °F 74% 29.62 in 10.0 mi NNE 15.0 mph - 0.00 in Snow Light Snow
8:53 PM 21.9 °F 11.7 °F 16.0 °F 78% 29.70 in 9.0 mi NNE 9.2 mph - 0.00 in Snow Light Snow
9:53 PM 21.2 °F 12.6 °F 15.8 °F 80% 29.65 in 9.0 mi NNE 6.9 mph - N/A Snow Light Snow
10:53 PM 19.0 °F 5.6 °F 12.0 °F 74% 29.73 in 9.0 mi NE 13.8 mph - 0.00 in Snow Light Snow
11:53 PM 18.0 °F 4.2 °F 10.9 °F 74% 29.73 in 4.0 mi NNE 13.8 mph - 0.00 in Snow Light Snow